Lid_Strength_Index
-0 -0 1 3 10 11 14 12 8 9 9 6 5 6 8 7 9 12 2 1 -0 0 -0 -1 -1 -1 -2 -2 -2 -2 -2 -1 -2 -2 -2 -2 -2 -2 -2 -2 -2 -3 -2 -2 -2 -2 -2 -2 -2
2 3 3 5 12 15 14 10 10 8 6 5 5 6 7 8 4 4 3 0 -0 -0 -0 -1 -2 -1 -1 -1 -1 -1 -1 -1 -2 -2 -2 -2 -2 -2 -2 -2 -3 -2 -2 -2 -2 -2 -2 -2 -2
1 4 9 9 11 15 14 10 9 7 5 6 7 5 6 7 4 3 1 0 -0 -0 -0 -0 -2 -1 -2 -1 -1 -1 -2 -2 -2 -2 -2 -2 -2 -2 -2 -3 -3 -2 -2 -2 -2 -2 -2 -2 -2
5 7 8 10 12 10 11 9 7 7 6 5 6 8 4 2 3 2 0 -0 0 0 -0 -1 -1 -2 -2 -1 -1 -1 -2 -2 -2 -2 -2 -2 -2 -2 -2 -3 -3 -2 -2 -2 -2 -2 -2 -2 -2
5 8 11 11 11 10 8 7 7 8 7 7 6 8 6 3 1 1 1 0 1 0 -0 -0 -2 -2 -2 -1 -1 -1 -2 -2 -2 -2 -2 -2 -2 -2 -3 -2 -2 -2 -2 -2 -2 -2 -2 -2 -2
9 9 11 14 12 9 7 6 7 7 6 6 7 7 6 2 2 1 0 0 0 0 -0 -0 -1 -2 -2 -2 -1 -2 -2 -2 -2 -2 -2 -2 -2 -2 -2 -2 -2 -2 -2 -2 -1 -1 -0 -1 -1
10 11 11 11 12 10 8 6 7 7 7 7 5 8 5 3 1 1 1 0 0 0 -0 -0 -0 -1 -1 -1 -2 -2 -2 -2 -2 -2 -2 -2 -2 -2 -2 -2 -2 -2 -2 -2 -1 -1 -1 -1 -2
8 10 11 9 12 12 7 7 6 7 7 4 4 8 8 4 1 1 1 1 1 1 1 0 -0 -0 -0 0 -1 -2 -2 -2 -2 -2 -2 -2 -2 -3 -2 -3 -3 -2 -2 -2 -1 -2 -1 -2 -2
8 10 12 10 10 10 7 8 6 4 6 5 4 5 3 2 2 2 2 2 2 1 1 0 0 0 -0 -0 -1 -1 -1 -1 -2 -2 -2 -1 0 -0 -1 -2 -2 -3 -2 -1 -1 -2 -2 -2 -2
8 10 9 7 7 9 7 7 7 7 7 7 6 4 3 3 3 3 3 3 2 2 1 0 -0 -0 -1 -2 -0 -0 -0 -0 -0 -0 1 1 -0 -0 -1 -1 -2 -2 -1 -1 -1 -2 -2 -0 1
8 8 7 7 7 7 8 7 6 8 9 7 7 6 4 3 3 3 3 3 2 1 1 1 1 -0 -0 -0 -0 -0 -0 1 -0 0 1 -0 -1 -1 -1 -1 -1 -1 -1 -0 -0 1 2 2 2
8 6 7 7 6 7 8 7 8 7 7 5 4 4 4 4 4 3 3 3 2 2 1 1 0 0 -0 -0 0 1 1 0 1 0 1 1 1 -0 -0 -0 -0 0 -0 0 1 2 2 3 2
8 7 6 6 6 7 6 8 8 8 5 4 4 4 4 4 4 3 3 2 2 2 2 2 1 1 1 1 1 0 -0 0 0 0 1 1 1 1 1 0 0 1 1 1 2 2 3 2 2
6 7 7 7 7 7 8 8 7 7 5 5 5 5 4 4 4 4 4 4 3 2 1 2 1 1 1 1 1 1 0 0 1 0 1 1 1 2 2 1 1 1 1 1 1 2 2 2 3
6 8 7 7 7 8 6 9 10 6 5 6 6 5 4 4 4 4 3 3 3 2 2 3 2 1 1 1 1 1 2 1 1 1 1 1 1 1 2 2 2 1 0 0 1 1 2 3 2
8 9 12 8 7 7 7 12 8 6 6 7 6 5 5 4 4 3 3 2 1 2 2 2 2 2 2 2 3 1 1 1 2 1 2 2 1 2 2 2 2 1 1 0 1 2 3 3 3
9 14 13 11 7 8 9 12 8 6 6 7 6 6 5 5 4 3 2 2 2 2 3 2 2 3 2 2 2 3 3 3 1 0 0 1 1 1 2 2 1 1 1 1 1 2 1 3 3
13 13 12 12 9 8 10 10 8 7 7 7 6 6 5 5 4 3 2 2 2 1 1 2 2 3 3 4 3 3 3 3 1 1 1 1 2 1 2 3 3 1 1 1 1 2 1 1 3
9 11 12 10 8 9 11 11 10 8 7 8 7 6 6 5 4 3 2 2 2 2 1 2 2 3 4 4 4 4 5 3 1 2 1 1 1 1 2 2 2 2 2 2 1 1 2 3 2
8 10 11 9 8 10 11 12 9 8 8 7 7 6 6 5 5 3 3 2 2 2 1 1 1 2 1 1 1 1 2 2 1 1 0 0 0 1 2 2 2 1 2 2 2 1 3 3 2
9 10 10 10 8 10 11 13 11 9 7 7 6 6 5 5 5 4 3 3 2 2 1 1 1 2 1 1 1 2 2 2 2 1 2 1 0 0 2 1 2 1 1 2 2 2 3 3 2
11 7 8 8 10 13 10 18 13 10 10 8 7 7 6 5 4 4 3 3 3 2 1 1 1 1 0 0 2 3 3 4 2 2 0 0 -0 -0 0 1 -0 1 1 2 2 1 2 3 3
9 7 8 8 10 12 13 16 14 10 11 10 8 7 6 5 4 4 4 3 2 2 2 1 2 2 1 1 2 3 3 2 1 1 1 1 0 0 -0 0 -0 0 1 2 1 2 2 3 2
7 8 9 10 11 16 14 15 16 13 11 10 8 6 5 5 4 4 3 2 2 2 2 2 2 2 2 1 1 2 3 3 3 2 2 2 2 1 1 0 1 1 1 2 1 1 2 2 2
8 11 15 16 16 19 13 15 15 10 9 8 8 7 5 5 4 4 4 3 4 3 3 3 3 3 3 2 1 2 3 3 4 4 4 4 3 3 2 1 1 1 0 -0 0 1 2 2 3
10 11 15 19 18 16 13 17 15 9 7 6 6 6 5 5 4 4 5 5 4 3 3 3 3 3 2 2 3 3 3 4 4 4 4 4 4 2 2 1 0 -0 -0 -0 1 1 2 2 2
10 12 10 13 13 17 16 13 10 8 8 7 7 6 6 5 6 6 5 4 4 4 3 3 3 3 3 3 3 4 4 4 4 4 3 4 3 1 1 1 0 -0 -0 0 2 2 2 2 2
9 8 13 13 19 21 17 16 15 11 10 8 8 7 7 6 7 5 5 5 5 5 5 4 4 5 3 3 4 4 4 4 3 2 4 2 3 1 1 2 1 1 0 1 2 3 2 3 2
10 11 11 12 14 19 20 18 9 9 9 9 8 7 7 7 6 6 6 5 5 5 4 4 4 4 3 5 4 3 3 3 3 4 3 2 2 1 1 2 2 2 2 1 2 2 1 2 1
8 10 11 15 16 15 16 16 7 7 7 7 7 6 6 6 6 6 6 6 6 5 4 4 4 4 4 5 5 3 3 3 3 3 3 2 2 2 1 2 2 2 2 2 2 1 1 1 1